User: anonymous   Login
Location: Unspecified
(0.0000°N, 0.0000°E)
Time: 06:08:39
(UTC+01:00)
Language:

Cosmos 1703 - Orbit

View from above orbital plane
View from above orbital plane
View from above satellite
View from above satellite

Ground track
Ground track

The orbit data is extracted from the following two-line orbital elements,

1 16262U 85108A   18051.90323045 +.00000098 +00000-0 +40762-5 0  9991
2 16262 082.4796 005.6261 0012924 132.8242 227.4077 15.10652028756181
Epoch (UTC): 20 February 2018 21:40:39
Eccentricity: 0.0012924
inclination: 82.4796°
perigee height: 525 km
apogee height: 543 km
right ascension of ascending node: 5.6261°
argument of perigee: 132.8242°
revolutions per day: 15.10652028
mean anomaly at epoch: 227.4077°
orbit number at epoch: 75618

The dashed part of the orbit path shows where the satellite is in the earth's shadow,  

DLR